• In Belarus
  • List of Countries
  • For 7 days
  • Water Temperature
  • Satellite Maps
  • Weather Map
  • Weather Widgets
  • user-avatar
    Login

    Hourly Weather Dinagepoor

    Today, 23 April, Monday

    Time Temperature Precipitation Wind Pressure Humidity
    00:00 +29°C° 0 mm 3 mps 752 mmHg 77%
    01:00 +29°C° 0 mm 3 mps 752 mmHg 78%
    02:00 +29°C° 0 mm 3 mps 752 mmHg 79%
    03:00 +28°C° 0 mm 3 mps 751 mmHg 81%
    04:00 +28°C° 0 mm 3 mps 752 mmHg 81%
    05:00 +28°C° 0 mm 2 mps 752 mmHg 81%
    06:00 +27°C° 0 mm 2 mps 752 mmHg 79%
    07:00 +29°C° 0 mm 2 mps 753 mmHg 68%
    08:00 +31°C° 0 mm 2 mps 753 mmHg 58%
    09:00 +34°C° 0 mm 2 mps 754 mmHg 47%
    10:00 +36°C° 0 mm 2 mps 753 mmHg 37%
    11:00 +38°C° 0 mm 3 mps 753 mmHg 26%
    12:00 +40°C° 0 mm 3 mps 753 mmHg 15%
    13:00 +40°C° 0 mm 3 mps 752 mmHg 13%
    14:00 +42°C° 0 mm 3 mps 751 mmHg 11%
    15:00 +43°C° 0 mm 4 mps 751 mmHg 9%
    16:00 +42°C° 0 mm 3 mps 750 mmHg 10%
    17:00 +40°C° 0 mm 2 mps 750 mmHg 12%
    18:00 +39°C° 0 mm 1 mps 750 mmHg 14%
    19:00 +36°C° 0 mm 1 mps 750 mmHg 15%
    20:00 +34°C° 0 mm 1 mps 750 mmHg 15%
    21:00 +33°C° 0 mm 1 mps 751 mmHg 16%
    22:00 +32°C° 0 mm 1 mps 751 mmHg 19%
    23:00 +31°C° 0 mm 2 mps 752 mmHg 22%

    Tomorrow, 24 April, Tuesday

    Time Temperature Precipitation Wind Pressure Humidity
    00:00 +30°C° 0 mm 2 mps 752 mmHg 25%
    01:00 +29°C° 0 mm 2 mps 752 mmHg 32%
    02:00 +29°C° 0 mm 2 mps 751 mmHg 40%
    03:00 +28°C° 0 mm 3 mps 751 mmHg 47%
    04:00 +28°C° 0 mm 2 mps 751 mmHg 51%
    05:00 +27°C° 0 mm 2 mps 752 mmHg 55%
    06:00 +27°C° 0 mm 2 mps 752 mmHg 58%
    07:00 +29°C° 0 mm 2 mps 752 mmHg 53%
    08:00 +31°C° 0 mm 2 mps 753 mmHg 47%
    09:00 +34°C° 0 mm 2 mps 753 mmHg 42%
    10:00 +36°C° 0 mm 2 mps 753 mmHg 35%
    11:00 +37°C° 0 mm 1 mps 753 mmHg 29%
    12:00 +40°C° 0 mm 1 mps 752 mmHg 23%
    13:00 +40°C° 0 mm 1 mps 752 mmHg 19%
    14:00 +41°C° 0 mm 2 mps 751 mmHg 15%
    15:00 +42°C° 0 mm 2 mps 750 mmHg 12%
    16:00 +41°C° 0 mm 2 mps 750 mmHg 13%
    17:00 +40°C° 0 mm 2 mps 749 mmHg 15%
    18:00 +39°C° 0 mm 2 mps 749 mmHg 16%
    19:00 +37°C° 0 mm 2 mps 749 mmHg 18%
    20:00 +36°C° 0 mm 3 mps 750 mmHg 20%
    21:00 +34°C° 0 mm 3 mps 750 mmHg 22%
    22:00 +33°C° 0 mm 3 mps 750 mmHg 25%
    23:00 +31°C° 0 mm 3 mps 751 mmHg 29%

    Day after tomorrow, 25 April, Wednesday

    Time Temperature Precipitation Wind Pressure Humidity
    00:00 +30°C° 0 mm 3 mps 751 mmHg 32%
    01:00 +30°C° 0 mm 3 mps 751 mmHg 36%
    02:00 +29°C° 0 mm 3 mps 750 mmHg 40%
    03:00 +29°C° 0 mm 3 mps 750 mmHg 44%
    04:00 +28°C° 0 mm 3 mps 750 mmHg 49%
    05:00 +28°C° 0 mm 3 mps 751 mmHg 55%
    06:00 +28°C° 0 mm 3 mps 751 mmHg 60%
    07:00 +29°C° 0 mm 3 mps 751 mmHg 58%
    08:00 +31°C° 0 mm 3 mps 752 mmHg 56%
    09:00 +34°C° 0 mm 3 mps 753 mmHg 53%
    10:00 +36°C° 0 mm 4 mps 752 mmHg 49%
    11:00 +37°C° 0 mm 4 mps 752 mmHg 45%
    12:00 +38°C° 0 mm 4 mps 752 mmHg 41%
    13:00 +39°C° 0 mm 3 mps 751 mmHg 36%
    14:00 +40°C° 0 mm 3 mps 750 mmHg 31%
    15:00 +41°C° 0 mm 2 mps 749 mmHg 27%
    16:00 +40°C° 0 mm 2 mps 749 mmHg 28%
    17:00 +39°C° 0 mm 3 mps 748 mmHg 29%
    18:00 +39°C° 0 mm 3 mps 748 mmHg 29%
    19:00 +37°C° 0 mm 3 mps 749 mmHg 36%
    20:00 +35°C° 0 mm 3 mps 749 mmHg 42%
    21:00 +34°C° 0 mm 3 mps 750 mmHg 49%
    22:00 +32°C° 0.4 mm 4 mps 750 mmHg 51%
    23:00 +30°C° 0.4 mm 5 mps 751 mmHg 54%

    26 April, Thursday

    Time Temperature Precipitation Wind Pressure Humidity
    00:00 +29°C° 0.4 mm 6 mps 751 mmHg 56%
    01:00 +28°C° 0 mm 5 mps 751 mmHg 58%
    02:00 +28°C° 0 mm 4 mps 751 mmHg 60%
    03:00 +28°C° 0 mm 2 mps 750 mmHg 62%
    04:00 +28°C° 0 mm 3 mps 751 mmHg 63%
    05:00 +27°C° 0 mm 3 mps 751 mmHg 64%
    06:00 +27°C° 0 mm 4 mps 751 mmHg 66%
    07:00 +28°C° 0 mm 4 mps 752 mmHg 61%
    08:00 +30°C° 0 mm 5 mps 753 mmHg 56%
    09:00 +32°C° 0 mm 5 mps 753 mmHg 51%
    10:00 +34°C° 0.1 mm 5 mps 753 mmHg 49%
    11:00 +35°C° 0.1 mm 5 mps 753 mmHg 46%
    12:00 +37°C° 0.1 mm 5 mps 752 mmHg 43%
    13:00 +37°C° 0 mm 5 mps 752 mmHg 42%
    14:00 +39°C° 0 mm 5 mps 751 mmHg 40%
    15:00 +40°C° 0 mm 4 mps 750 mmHg 38%
    16:00 +38°C° 0 mm 4 mps 749 mmHg 41%
    17:00 +37°C° 0 mm 4 mps 749 mmHg 44%
    18:00 +37°C° 0 mm 3 mps 749 mmHg 47%
    19:00 +36°C° 0 mm 3 mps 749 mmHg 50%
    20:00 +35°C° 0 mm 4 mps 750 mmHg 53%
    21:00 +34°C° 0 mm 4 mps 751 mmHg 56%
    22:00 +33°C° 2.2 mm 5 mps 751 mmHg 59%
    23:00 +32°C° 2.2 mm 6 mps 751 mmHg 62%

    27 April, Friday

    Time Temperature Precipitation Wind Pressure Humidity
    00:00 +29°C° 2.2 mm 6 mps 752 mmHg 64%
    01:00 +29°C° 0.1 mm 5 mps 752 mmHg 68%
    02:00 +29°C° 0.1 mm 4 mps 752 mmHg 72%
    03:00 +29°C° 0.1 mm 3 mps 752 mmHg 76%
    04:00 +29°C° 2.6 mm 4 mps 752 mmHg 78%
    05:00 +28°C° 2.6 mm 5 mps 752 mmHg 79%
    06:00 +27°C° 2.6 mm 6 mps 753 mmHg 81%
    07:00 +28°C° 0 mm 6 mps 753 mmHg 78%
    08:00 +28°C° 0 mm 6 mps 754 mmHg 75%
    09:00 +29°C° 0 mm 6 mps 755 mmHg 72%
    10:00 +30°C° 0.1 mm 6 mps 755 mmHg 67%
    11:00 +32°C° 0.1 mm 7 mps 754 mmHg 62%
    12:00 +33°C° 0.1 mm 7 mps 754 mmHg 57%
    13:00 +34°C° 0.4 mm 6 mps 753 mmHg 56%
    14:00 +34°C° 0.4 mm 6 mps 752 mmHg 54%
    15:00 +34°C° 0.4 mm 6 mps 752 mmHg 53%
    16:00 +33°C° 0.6 mm 6 mps 752 mmHg 57%
    17:00 +33°C° 0.6 mm 5 mps 751 mmHg 60%
    18:00 +32°C° 0.6 mm 4 mps 751 mmHg 64%
    19:00 +30°C° 0.4 mm 4 mps 752 mmHg 66%
    20:00 +29°C° 0.4 mm 4 mps 753 mmHg 68%
    21:00 +28°C° 0.4 mm 4 mps 753 mmHg 70%
    22:00 +28°C° 1 mm 4 mps 753 mmHg 72%
    23:00 +27°C° 1 mm 4 mps 754 mmHg 75%

    28 April, Saturday

    Time Temperature Precipitation Wind Pressure Humidity
    00:00 +27°C° 1 mm 4 mps 754 mmHg 77%
    01:00 +27°C° 0 mm 4 mps 754 mmHg 78%
    02:00 +26°C° 0 mm 4 mps 753 mmHg 79%
    03:00 +26°C° 0 mm 4 mps 753 mmHg 80%
    04:00 +26°C° 1.1 mm 5 mps 753 mmHg 81%
    05:00 +26°C° 1.1 mm 5 mps 754 mmHg 82%
    06:00 +26°C° 1.1 mm 5 mps 754 mmHg 84%
    07:00 +27°C° 0.1 mm 5 mps 755 mmHg 81%
    08:00 +27°C° 0.1 mm 5 mps 755 mmHg 78%
    09:00 +28°C° 0.1 mm 5 mps 756 mmHg 74%
    10:00 +29°C° 0.2 mm 5 mps 755 mmHg 71%
    11:00 +30°C° 0.2 mm 5 mps 755 mmHg 68%
    12:00 +32°C° 0.2 mm 5 mps 755 mmHg 65%
    13:00 +33°C° 0.1 mm 5 mps 754 mmHg 59%
    14:00 +34°C° 0.1 mm 4 mps 753 mmHg 54%
    15:00 +36°C° 0.1 mm 4 mps 752 mmHg 48%
    16:00 +35°C° 0.5 mm 4 mps 752 mmHg 51%
    17:00 +34°C° 0.5 mm 4 mps 752 mmHg 54%
    18:00 +33°C° 0.5 mm 4 mps 752 mmHg 57%
    19:00 +32°C° 0.5 mm 4 mps 752 mmHg 62%
    20:00 +30°C° 0.5 mm 3 mps 753 mmHg 66%
    21:00 +28°C° 0.5 mm 3 mps 753 mmHg 70%
    22:00 +28°C° 0.3 mm 3 mps 753 mmHg 72%
    23:00 +27°C° 0.3 mm 3 mps 753 mmHg 74%
    Show more